Weather History for Big Bear City, CA

Change the Weather History Date:

Thursday, January 17, 2013

  Actual Average (KBUO) Record (KBUO)
Temperature  
Mean Temperature 30 °F -  
Max Temperature 46 °F 58 °F 69 °F (2000)
Min Temperature 15 °F 41 °F 28 °F (2001)
Degree Days  
Heating Degree Days 34    
Moisture  
Dew Point 8 °F    
Average Humidity 49    
Maximum Humidity 73    
Minimum Humidity 15    
Precipitation  
Precipitation 0.00 in - - ()
Sea Level Pressure  
Sea Level Pressure 30.33 in    
Wind  
Wind Speed 3 mph (East)    
Max Wind Speed 12 mph    
Max Gust Speed -    
Visibility 10 miles    
Events      
Averages and records for this station are not official NWS values.
T = Trace of Precipitation, MM = Missing Value Source: NWS Daily Summary

Daily Weather History Graph

Daily Weather History Graph

Search for Another Location

Airport:

Trip Planner

Search our weather history database for the weather conditions in past years. The results will help you decide how hot, cold, wet, or windy it might be!

Date:

Astronomy

Jan. 17, 2013 Rise Set
Actual Time 6:52 AM PST 5:03 PM PST
Civil Twilight 6:25 AM PST 5:30 PM PST
Nautical Twilight 5:54 AM PST 6:00 PM PST
Astronomical Twilight 5:24 AM PST 6:30 PM PST
Moon 10:21 AM PST (1/17) 11:37 PM PST (1/17)
Length of Visible Light 11h 04m
Length of Day
10h 10m
Waxing Crescent, 39% of the Moon is Illuminated
Jan 17
Waxing Crescent
Jan 18
First Quarter
Jan 26
Full
Feb 3
Last Quarter
Feb 9
New

Hourly Weather History & Observations

Time (PST) Temp. Windchill Dew Point Humidity Pressure Visibility Wind Dir Wind Speed Gust Speed Precip Events Conditions
12:15 AM 23.0 °F - 12.2 °F 63% 30.36 in 10.0 mi Calm Calm - N/A   Clear
12:35 AM 23.0 °F 17.0 °F 10.4 °F 59% 30.36 in 10.0 mi ENE 4.6 mph - N/A   Clear
12:55 AM 23.0 °F 17.0 °F 10.4 °F 59% 30.37 in 7.0 mi ENE 4.6 mph - N/A   Clear
1:15 AM 23.0 °F 17.0 °F 10.4 °F 59% 30.37 in 10.0 mi ENE 4.6 mph - N/A   Clear
1:35 AM 23.0 °F - 10.4 °F 59% 30.36 in 10.0 mi Calm Calm - N/A   Clear
1:55 AM 21.2 °F - 10.4 °F 63% 30.36 in 7.0 mi Calm Calm - N/A   Clear
2:15 AM 21.2 °F - 12.2 °F 68% 30.36 in 10.0 mi Calm Calm - N/A   Clear
2:35 AM 21.2 °F - 10.4 °F 63% 30.35 in 10.0 mi Calm Calm - N/A   Clear
2:55 AM 21.2 °F - 10.4 °F 63% 30.34 in 10.0 mi Calm Calm - N/A   Clear
3:15 AM 21.2 °F - 10.4 °F 63% 30.34 in 7.0 mi Calm Calm - N/A   Clear
3:35 AM 19.4 °F - 10.4 °F 68% 30.34 in 10.0 mi Calm Calm - N/A   Clear
3:55 AM 19.4 °F - 10.4 °F 68% 30.33 in 10.0 mi Calm Calm - N/A   Clear
4:15 AM 19.4 °F - 8.6 °F 63% 30.33 in 10.0 mi Calm Calm - N/A   Clear
4:35 AM 19.4 °F - 8.6 °F 63% 30.34 in 10.0 mi Calm Calm - N/A   Clear
4:55 AM 17.6 °F - 8.6 °F 68% 30.34 in 10.0 mi Calm Calm - N/A   Clear
5:15 AM 17.6 °F - 8.6 °F 68% 30.33 in 10.0 mi Calm Calm - N/A   Clear
5:35 AM 17.6 °F - 8.6 °F 68% 30.33 in 10.0 mi Calm Calm - N/A   Clear
5:55 AM 17.6 °F - 8.6 °F 68% 30.33 in 10.0 mi Calm Calm - N/A   Clear
6:15 AM 17.6 °F - 8.6 °F 68% 30.34 in 10.0 mi Calm Calm - N/A   Clear
6:35 AM 17.6 °F 10.7 °F 6.8 °F 63% 30.34 in 10.0 mi East 4.6 mph - N/A   Clear
6:55 AM 15.8 °F 10.2 °F 6.8 °F 68% 30.34 in 10.0 mi ENE 3.5 mph - N/A   Clear
7:15 AM 15.8 °F - 8.6 °F 73% 30.34 in 10.0 mi Calm Calm - N/A   Clear
7:35 AM 17.6 °F - 8.6 °F 68% 30.36 in 10.0 mi Calm Calm - N/A   Clear
7:55 AM 19.4 °F - 10.4 °F 68% 30.36 in 10.0 mi Calm Calm - N/A   Clear
8:15 AM 23.0 °F - 10.4 °F 59% 30.36 in 10.0 mi Calm Calm - N/A   Clear
8:35 AM 26.6 °F - 12.2 °F 55% 30.37 in 10.0 mi Calm Calm - N/A   Clear
8:55 AM 32.0 °F 28.7 °F 14.0 °F 48% 30.37 in 10.0 mi East 3.5 mph - N/A   Clear
9:15 AM 37.4 °F 30.8 °F 5.0 °F 26% 30.37 in 10.0 mi ENE 9.2 mph - N/A   Clear
9:35 AM 39.2 °F 32.0 °F 3.2 °F 22% 30.38 in 10.0 mi ENE 11.5 mph - N/A   Clear
9:55 AM 41.0 °F 34.7 °F -0.4 °F 18% 30.38 in 10.0 mi East 10.4 mph - N/A   Clear
10:15 AM 42.8 °F 37.0 °F -0.4 °F 16% 30.37 in 10.0 mi ENE 10.4 mph - N/A   Clear
10:35 AM 42.8 °F 38.6 °F -0.4 °F 16% 30.36 in 10.0 mi East 6.9 mph - N/A   Clear
10:55 AM 42.8 °F 38.6 °F 1.4 °F 18% 30.35 in 10.0 mi ESE 6.9 mph - N/A   Clear
11:15 AM 44.6 °F 40.2 °F -0.4 °F 15% 30.34 in 10.0 mi East 8.1 mph - N/A   Clear
11:35 AM 44.6 °F 40.2 °F -0.4 °F 15% 30.32 in 10.0 mi ENE 8.1 mph - N/A   Clear
11:55 AM 46.4 °F 41.9 °F 1.4 °F 16% 30.31 in 10.0 mi East 9.2 mph - N/A   Clear
12:15 PM 46.4 °F 41.5 °F 3.2 °F 17% 30.30 in 10.0 mi East 10.4 mph - N/A   Clear
12:35 PM 46.4 °F 41.9 °F 1.4 °F 16% 30.29 in 10.0 mi East 9.2 mph - N/A   Clear
12:55 PM 46.4 °F 41.9 °F 3.2 °F 17% 30.28 in 10.0 mi East 9.2 mph - N/A   Clear
1:15 PM 46.4 °F 41.1 °F 3.2 °F 17% 30.28 in 10.0 mi East 11.5 mph - N/A   Clear
1:35 PM 46.4 °F 41.9 °F 5.0 °F 18% 30.28 in 10.0 mi East 9.2 mph - N/A   Clear
1:55 PM 46.4 °F 41.1 °F 3.2 °F 17% 30.27 in 10.0 mi East 11.5 mph - N/A   Clear
2:55 PM 46.4 °F 41.5 °F 5.0 °F 18% 30.28 in 10.0 mi ENE 10.4 mph - N/A   Clear
3:35 PM 46.4 °F 42.9 °F 5.0 °F 18% 30.28 in 10.0 mi ENE 6.9 mph - N/A   Clear
5:55 PM 32.0 °F - 12.2 °F 44% 30.31 in 10.0 mi Calm Calm - N/A   Clear
6:15 PM 30.2 °F - 12.2 °F 47% 30.31 in 10.0 mi Calm Calm - N/A   Clear
6:55 PM 26.6 °F - 12.2 °F 55% 30.32 in 10.0 mi Calm Calm - N/A   Clear
7:15 PM 26.6 °F - 12.2 °F 55% 30.31 in 10.0 mi Calm Calm - N/A   Clear
7:35 PM 26.6 °F - 10.4 °F 51% 30.32 in 10.0 mi Calm Calm - N/A   Clear
7:55 PM 26.6 °F - 10.4 °F 51% 30.32 in 10.0 mi Calm Calm - N/A   Clear
9:15 PM 23.0 °F - 12.2 °F 63% 30.32 in 10.0 mi Calm Calm - N/A   Clear
9:35 PM 23.0 °F - 12.2 °F 63% 30.32 in 10.0 mi Calm Calm - N/A   Clear
9:55 PM 21.2 °F - 12.2 °F 68% 30.31 in 10.0 mi Calm Calm - N/A   Clear
10:15 PM 21.2 °F - 10.4 °F 63% 30.31 in 10.0 mi Calm Calm - N/A   Clear
10:35 PM 21.2 °F - 10.4 °F 63% 30.31 in 10.0 mi Calm Calm - N/A   Clear
10:55 PM 21.2 °F - 10.4 °F 63% 30.31 in 10.0 mi Calm Calm - N/A   Clear
11:15 PM 19.4 °F - 10.4 °F 68% 30.31 in 10.0 mi Calm Calm - N/A   Clear
11:35 PM 19.4 °F - 10.4 °F 68% 30.31 in 10.0 mi Calm Calm - N/A   Clear
11:55 PM 19.4 °F - 8.6 °F 63% 30.31 in 10.0 mi Calm Calm - N/A   Clear